owner,sensor,date,latitude,longitude,vertical_datum,wind_speed,wind_to_direction,wind_speed_of_gust,qcFlag 
WAVCIS,ioos:station:WAVCIS:CSI06:1,2012-06-01T00:00:00Z,28.8667,-90.4833,10.0,8.7,33.0,,'11111222,11111222,99999999' 
WAVCIS,ioos:station:WAVCIS:CSI06:1,2012-06-01T01:00:00Z,28.8667,-90.4833,10.0,2.136,26.0,,'11111222,11111222,99999999' 
WAVCIS,ioos:station:WAVCIS:CSI06:1,2012-06-01T02:00:00Z,28.8667,-90.4833,10.0,1.698,359.0,,'11111222,11111222,99999999' 
WAVCIS,ioos:station:WAVCIS:CSI06:1,2012-06-01T03:00:00Z,28.8667,-90.4833,10.0,2.415,85.0,,'11111222,11111222,99999999' 
WAVCIS,ioos:station:WAVCIS:CSI06:1,2012-06-01T04:00:00Z,28.8667,-90.4833,10.0,4.717,140.0,,'11111222,11111222,99999999' 
WAVCIS,ioos:station:WAVCIS:CSI06:1,2012-06-01T05:00:00Z,28.8667,-90.4833,10.0,1.78,222.0,,'11111222,11111222,99999999' 
WAVCIS,ioos:station:WAVCIS:CSI06:1,2012-06-01T06:00:00Z,28.8667,-90.4833,10.0,7.79,227.0,,'11111222,11111222,99999999' 
WAVCIS,ioos:station:WAVCIS:CSI06:1,2012-06-01T07:00:00Z,28.8667,-90.4833,10.0,6.141,129.0,,'11111222,11111222,99999999' 
WAVCIS,ioos:station:WAVCIS:CSI06:1,2012-06-01T08:00:00Z,28.8667,-90.4833,10.0,7.53,241.0,,'11111222,11111222,99999999' 
WAVCIS,ioos:station:WAVCIS:CSI06:1,2012-06-01T09:00:00Z,28.8667,-90.4833,10.0,8.26,250.0,,'11111222,11111222,99999999' 
WAVCIS,ioos:station:WAVCIS:CSI06:1,2012-06-01T10:00:00Z,28.8667,-90.4833,10.0,6.251,242.0,,'11111222,11111222,99999999' 
WAVCIS,ioos:station:WAVCIS:CSI06:1,2012-06-01T11:00:00Z,28.8667,-90.4833,10.0,6.22,263.0,,'11111222,11111222,99999999' 
WAVCIS,ioos:station:WAVCIS:CSI06:1,2012-06-01T12:00:00Z,28.8667,-90.4833,10.0,8.13,276.0,,'11111222,11111222,99999999' 
WAVCIS,ioos:station:WAVCIS:CSI06:1,2012-06-01T13:00:00Z,28.8667,-90.4833,10.0,8.52,271.0,,'11111222,11111222,99999999' 
WAVCIS,ioos:station:WAVCIS:CSI06:1,2012-06-01T14:00:00Z,28.8667,-90.4833,10.0,7.71,301.0,,'11111222,11111222,99999999' 
WAVCIS,ioos:station:WAVCIS:CSI06:1,2012-06-01T15:00:00Z,28.8667,-90.4833,10.0,5.779,290.0,,'11111222,11111222,99999999' 
WAVCIS,ioos:station:WAVCIS:CSI06:1,2012-06-01T16:00:00Z,28.8667,-90.4833,10.0,6.68,325.0,,'11111222,11111222,99999999' 
WAVCIS,ioos:station:WAVCIS:CSI06:1,2012-06-01T17:00:00Z,28.8667,-90.4833,10.0,5.941,330.0,,'11111222,11111222,99999999' 
WAVCIS,ioos:station:WAVCIS:CSI06:1,2012-06-01T18:00:00Z,28.8667,-90.4833,10.0,7.45,308.0,,'11111222,11111222,99999999' 
WAVCIS,ioos:station:WAVCIS:CSI06:1,2012-06-01T19:00:00Z,28.8667,-90.4833,10.0,6.88,296.0,,'11111222,11111222,99999999' 
WAVCIS,ioos:station:WAVCIS:CSI06:1,2012-06-01T20:00:00Z,28.8667,-90.4833,10.0,5.853,288.0,,'11111222,11111222,99999999' 
WAVCIS,ioos:station:WAVCIS:CSI06:1,2012-06-01T21:00:00Z,28.8667,-90.4833,10.0,7.32,286.0,,'11111222,11111222,99999999' 
WAVCIS,ioos:station:WAVCIS:CSI06:1,2012-06-01T22:00:00Z,28.8667,-90.4833,10.0,7.58,282.0,,'11111222,11111222,99999999' 
WAVCIS,ioos:station:WAVCIS:CSI06:1,2012-06-01T23:00:00Z,28.8667,-90.4833,10.0,7.96,282.0,,'11111222,11111222,99999999' 
WAVCIS,ioos:station:WAVCIS:CSI06:1,2012-06-02T00:00:00Z,28.8667,-90.4833,10.0,8.06,297.0,,'11111222,11111222,99999999' 
WAVCIS,ioos:station:WAVCIS:CSI06:1,2012-06-02T01:00:00Z,28.8667,-90.4833,10.0,7.15,331.0,,'11111222,11111222,99999999' 
WAVCIS,ioos:station:WAVCIS:CSI06:1,2012-06-02T02:00:00Z,28.8667,-90.4833,10.0,7.56,336.0,,'11111222,11111222,99999999' 
WAVCIS,ioos:station:WAVCIS:CSI06:1,2012-06-02T03:00:00Z,28.8667,-90.4833,10.0,8.41,19.0,,'11111222,11111222,99999999' 
WAVCIS,ioos:station:WAVCIS:CSI06:1,2012-06-02T04:00:00Z,28.8667,-90.4833,10.0,8.3,36.0,,'11111222,11111222,99999999' 
WAVCIS,ioos:station:WAVCIS:CSI06:1,2012-06-02T05:00:00Z,28.8667,-90.4833,10.0,7.07,27.0,,'11111222,11111222,99999999' 
WAVCIS,ioos:station:WAVCIS:CSI06:1,2012-06-02T06:00:00Z,28.8667,-90.4833,10.0,6.932,28.0,,'11111222,11111222,99999999' 
WAVCIS,ioos:station:WAVCIS:CSI06:1,2012-06-02T07:00:00Z,28.8667,-90.4833,10.0,7.27,48.0,,'11111222,11111222,99999999' 
WAVCIS,ioos:station:WAVCIS:CSI06:1,2012-06-02T08:00:00Z,28.8667,-90.4833,10.0,7.04,40.0,,'11111222,11111222,99999999' 
WAVCIS,ioos:station:WAVCIS:CSI06:1,2012-06-02T09:00:00Z,28.8667,-90.4833,10.0,6.529,48.0,,'11111222,11111222,99999999' 
WAVCIS,ioos:station:WAVCIS:CSI06:1,2012-06-02T10:00:00Z,28.8667,-90.4833,10.0,5.767,43.0,,'11111222,11111222,99999999' 
WAVCIS,ioos:station:WAVCIS:CSI06:1,2012-06-02T11:00:00Z,28.8667,-90.4833,10.0,5.926,48.0,,'11111222,11111222,99999999' 
WAVCIS,ioos:station:WAVCIS:CSI06:1,2012-06-02T12:00:00Z,28.8667,-90.4833,10.0,6.147,57.0,,'11111222,11111222,99999999' 
WAVCIS,ioos:station:WAVCIS:CSI06:1,2012-06-02T13:00:00Z,28.8667,-90.4833,10.0,5.626,58.0,,'11111222,11111222,99999999' 
WAVCIS,ioos:station:WAVCIS:CSI06:1,2012-06-02T14:00:00Z,28.8667,-90.4833,10.0,5.614,58.0,,'11111222,11111222,99999999' 
WAVCIS,ioos:station:WAVCIS:CSI06:1,2012-06-02T15:00:00Z,28.8667,-90.4833,10.0,4.948,70.0,,'11111222,11111222,99999999' 
WAVCIS,ioos:station:WAVCIS:CSI06:1,2012-06-02T16:00:00Z,28.8667,-90.4833,10.0,4.706,68.0,,'11111222,11111222,99999999' 
WAVCIS,ioos:station:WAVCIS:CSI06:1,2012-06-02T17:00:00Z,28.8667,-90.4833,10.0,5.103,79.0,,'11111222,11111222,99999999' 
WAVCIS,ioos:station:WAVCIS:CSI06:1,2012-06-02T18:00:00Z,28.8667,-90.4833,10.0,5.033,71.0,,'11111222,11111222,99999999' 
WAVCIS,ioos:station:WAVCIS:CSI06:1,2012-06-02T19:00:00Z,28.8667,-90.4833,10.0,4.701,84.0,,'11111222,11111222,99999999' 
WAVCIS,ioos:station:WAVCIS:CSI06:1,2012-06-02T20:00:00Z,28.8667,-90.4833,10.0,3.932,102.0,,'11111222,11111222,99999999' 
WAVCIS,ioos:station:WAVCIS:CSI06:1,2012-06-02T21:00:00Z,28.8667,-90.4833,10.0,4.009,111.0,,'11111222,11111222,99999999' 
WAVCIS,ioos:station:WAVCIS:CSI06:1,2012-06-02T22:00:00Z,28.8667,-90.4833,10.0,4.005,123.0,,'11111222,11111222,99999999' 
WAVCIS,ioos:station:WAVCIS:CSI06:1,2012-06-02T23:00:00Z,28.8667,-90.4833,10.0,3.619,130.0,,'11111222,11111222,99999999' 
WAVCIS,ioos:station:WAVCIS:CSI06:1,2012-06-03T00:00:00Z,28.8667,-90.4833,10.0,3.742,143.0,,'11111222,11111222,99999999' 
WAVCIS,ioos:station:WAVCIS:CSI06:1,2012-06-03T01:00:00Z,28.8667,-90.4833,10.0,4.644,140.0,,'11111222,11111222,99999999' 
WAVCIS,ioos:station:WAVCIS:CSI06:1,2012-06-03T02:00:00Z,28.8667,-90.4833,10.0,4.511,147.0,,'11111222,11111222,99999999' 
WAVCIS,ioos:station:WAVCIS:CSI06:1,2012-06-03T03:00:00Z,28.8667,-90.4833,10.0,4.763,147.0,,'11111222,11111222,99999999' 
WAVCIS,ioos:station:WAVCIS:CSI06:1,2012-06-03T04:00:00Z,28.8667,-90.4833,10.0,5.817,150.0,,'11111222,11111222,99999999' 
WAVCIS,ioos:station:WAVCIS:CSI06:1,2012-06-03T05:00:00Z,28.8667,-90.4833,10.0,6.401,175.0,,'11111222,11111222,99999999' 
WAVCIS,ioos:station:WAVCIS:CSI06:1,2012-06-03T06:00:00Z,28.8667,-90.4833,10.0,5.583,166.0,,'11111222,11111222,99999999' 
WAVCIS,ioos:station:WAVCIS:CSI06:1,2012-06-03T07:00:00Z,28.8667,-90.4833,10.0,5.955,162.0,,'11111222,11111222,99999999' 
WAVCIS,ioos:station:WAVCIS:CSI06:1,2012-06-03T08:00:00Z,28.8667,-90.4833,10.0,5.183,188.0,,'11111222,11111222,99999999' 
WAVCIS,ioos:station:WAVCIS:CSI06:1,2012-06-03T09:00:00Z,28.8667,-90.4833,10.0,4.68,197.0,,'11111222,11111222,99999999' 
WAVCIS,ioos:station:WAVCIS:CSI06:1,2012-06-03T10:00:00Z,28.8667,-90.4833,10.0,4.81,172.0,,'11111222,11111222,99999999' 
WAVCIS,ioos:station:WAVCIS:CSI06:1,2012-06-03T11:00:00Z,28.8667,-90.4833,10.0,4.423,181.0,,'11111222,11111222,99999999' 
WAVCIS,ioos:station:WAVCIS:CSI06:1,2012-06-03T12:00:00Z,28.8667,-90.4833,10.0,4.728,186.0,,'11111222,11111222,99999999' 
WAVCIS,ioos:station:WAVCIS:CSI06:1,2012-06-03T13:00:00Z,28.8667,-90.4833,10.0,4.59,198.0,,'11111222,11111222,99999999' 
WAVCIS,ioos:station:WAVCIS:CSI06:1,2012-06-03T14:00:00Z,28.8667,-90.4833,10.0,5.137,205.0,,'11111222,11111222,99999999' 
WAVCIS,ioos:station:WAVCIS:CSI06:1,2012-06-03T15:00:00Z,28.8667,-90.4833,10.0,4.683,231.0,,'11111222,11111222,99999999' 
WAVCIS,ioos:station:WAVCIS:CSI06:1,2012-06-03T16:00:00Z,28.8667,-90.4833,10.0,4.659,225.0,,'11111222,11111222,99999999' 
WAVCIS,ioos:station:WAVCIS:CSI06:1,2012-06-03T17:00:00Z,28.8667,-90.4833,10.0,4.169,222.0,,'11111222,11111222,99999999' 
WAVCIS,ioos:station:WAVCIS:CSI06:1,2012-06-03T18:00:00Z,28.8667,-90.4833,10.0,2.874,217.0,,'11111222,11111222,99999999' 
WAVCIS,ioos:station:WAVCIS:CSI06:1,2012-06-03T19:00:00Z,28.8667,-90.4833,10.0,2.619,234.0,,'11111222,11111222,99999999' 
WAVCIS,ioos:station:WAVCIS:CSI06:1,2012-06-03T20:00:00Z,28.8667,-90.4833,10.0,2.94,214.0,,'11111222,11111222,99999999' 
WAVCIS,ioos:station:WAVCIS:CSI06:1,2012-06-03T21:00:00Z,28.8667,-90.4833,10.0,2.608,218.0,,'11111222,11111222,99999999' 
WAVCIS,ioos:station:WAVCIS:CSI06:1,2012-06-03T22:00:00Z,28.8667,-90.4833,10.0,2.272,232.0,,'11111222,11111222,99999999' 
WAVCIS,ioos:station:WAVCIS:CSI06:1,2012-06-03T23:00:00Z,28.8667,-90.4833,10.0,3.061,201.0,,'11111222,11111222,99999999' 
WAVCIS,ioos:station:WAVCIS:CSI06:1,2012-06-04T00:00:00Z,28.8667,-90.4833,10.0,3.509,185.0,,'11111222,11111222,99999999' 
WAVCIS,ioos:station:WAVCIS:CSI06:1,2012-06-04T01:00:00Z,28.8667,-90.4833,10.0,3.607,194.0,,'11111222,11111222,99999999' 
WAVCIS,ioos:station:WAVCIS:CSI06:1,2012-06-04T02:00:00Z,28.8667,-90.4833,10.0,3.621,203.0,,'11111222,11111222,99999999' 
WAVCIS,ioos:station:WAVCIS:CSI06:1,2012-06-04T03:00:00Z,28.8667,-90.4833,10.0,3.675,188.0,,'11111222,11111222,99999999' 
WAVCIS,ioos:station:WAVCIS:CSI06:1,2012-06-04T04:00:00Z,28.8667,-90.4833,10.0,4.136,184.0,,'11111222,11111222,99999999' 
WAVCIS,ioos:station:WAVCIS:CSI06:1,2012-06-04T05:00:00Z,28.8667,-90.4833,10.0,5.481,178.0,,'11111222,11111222,99999999' 
WAVCIS,ioos:station:WAVCIS:CSI06:1,2012-06-04T06:00:00Z,28.8667,-90.4833,10.0,5.692,179.0,,'11111222,11111222,99999999' 
WAVCIS,ioos:station:WAVCIS:CSI06:1,2012-06-04T07:00:00Z,28.8667,-90.4833,10.0,6.136,191.0,,'11111222,11111222,99999999' 
WAVCIS,ioos:station:WAVCIS:CSI06:1,2012-06-04T08:00:00Z,28.8667,-90.4833,10.0,7.24,198.0,,'11111222,11111222,99999999' 
WAVCIS,ioos:station:WAVCIS:CSI06:1,2012-06-04T09:00:00Z,28.8667,-90.4833,10.0,6.512,207.0,,'11111222,11111222,99999999' 
WAVCIS,ioos:station:WAVCIS:CSI06:1,2012-06-04T10:00:00Z,28.8667,-90.4833,10.0,5.385,218.0,,'11111222,11111222,99999999' 
WAVCIS,ioos:station:WAVCIS:CSI06:1,2012-06-04T11:00:00Z,28.8667,-90.4833,10.0,6.198,223.0,,'11111222,11111222,99999999' 
WAVCIS,ioos:station:WAVCIS:CSI06:1,2012-06-04T12:00:00Z,28.8667,-90.4833,10.0,6.453,231.0,,'11111222,11111222,99999999' 
WAVCIS,ioos:station:WAVCIS:CSI06:1,2012-06-04T13:00:00Z,28.8667,-90.4833,10.0,5.739,234.0,,'11111222,11111222,99999999' 
WAVCIS,ioos:station:WAVCIS:CSI06:1,2012-06-04T14:00:00Z,28.8667,-90.4833,10.0,5.779,242.0,,'11111222,11111222,99999999' 
WAVCIS,ioos:station:WAVCIS:CSI06:1,2012-06-04T15:00:00Z,28.8667,-90.4833,10.0,5.004,254.0,,'11111222,11111222,99999999' 
WAVCIS,ioos:station:WAVCIS:CSI06:1,2012-06-04T16:00:00Z,28.8667,-90.4833,10.0,4.444,251.0,,'11111222,11111222,99999999' 
WAVCIS,ioos:station:WAVCIS:CSI06:1,2012-06-04T17:00:00Z,28.8667,-90.4833,10.0,3.939,279.0,,'11111222,11111222,99999999' 
WAVCIS,ioos:station:WAVCIS:CSI06:1,2012-06-04T18:00:00Z,28.8667,-90.4833,10.0,2.116,263.0,,'11111222,11111222,99999999' 
WAVCIS,ioos:station:WAVCIS:CSI06:1,2012-06-04T19:00:00Z,28.8667,-90.4833,10.0,2.062,234.0,,'11111222,11111222,99999999' 
WAVCIS,ioos:station:WAVCIS:CSI06:1,2012-06-04T20:00:00Z,28.8667,-90.4833,10.0,2.534,211.0,,'11111222,11111222,99999999' 
WAVCIS,ioos:station:WAVCIS:CSI06:1,2012-06-04T21:00:00Z,28.8667,-90.4833,10.0,2.764,231.0,,'11111222,11111222,99999999' 
WAVCIS,ioos:station:WAVCIS:CSI06:1,2012-06-04T22:00:00Z,28.8667,-90.4833,10.0,2.303,239.0,,'11111222,11111222,99999999' 
WAVCIS,ioos:station:WAVCIS:CSI06:1,2012-06-04T23:00:00Z,28.8667,-90.4833,10.0,2.402,230.0,,'11111222,11111222,99999999' 
WAVCIS,ioos:station:WAVCIS:CSI06:1,2012-06-05T00:00:00Z,28.8667,-90.4833,10.0,3.814,215.0,,'11111222,11111222,99999999' 
WAVCIS,ioos:station:WAVCIS:CSI06:1,2012-06-05T01:00:00Z,28.8667,-90.4833,10.0,3.213,220.0,,'11111222,11111222,99999999' 
WAVCIS,ioos:station:WAVCIS:CSI06:1,2012-06-05T02:00:00Z,28.8667,-90.4833,10.0,2.844,240.0,,'11111222,11111222,99999999' 
WAVCIS,ioos:station:WAVCIS:CSI06:1,2012-06-05T03:00:00Z,28.8667,-90.4833,10.0,3.553,235.0,,'11111222,11111222,99999999' 
WAVCIS,ioos:station:WAVCIS:CSI06:1,2012-06-05T04:00:00Z,28.8667,-90.4833,10.0,3.858,220.0,,'11111222,11111222,99999999' 
WAVCIS,ioos:station:WAVCIS:CSI06:1,2012-06-05T05:00:00Z,28.8667,-90.4833,10.0,4.798,213.0,,'11111222,11111222,99999999' 
WAVCIS,ioos:station:WAVCIS:CSI06:1,2012-06-05T06:00:00Z,28.8667,-90.4833,10.0,5.416,213.0,,'11111222,11111222,99999999' 
WAVCIS,ioos:station:WAVCIS:CSI06:1,2012-06-05T07:00:00Z,28.8667,-90.4833,10.0,6.658,212.0,,'11111222,11111222,99999999' 
WAVCIS,ioos:station:WAVCIS:CSI06:1,2012-06-05T08:00:00Z,28.8667,-90.4833,10.0,7.28,224.0,,'11111222,11111222,99999999' 
WAVCIS,ioos:station:WAVCIS:CSI06:1,2012-06-05T09:00:00Z,28.8667,-90.4833,10.0,6.362,244.0,,'11111222,11111222,99999999' 
WAVCIS,ioos:station:WAVCIS:CSI06:1,2012-06-05T10:00:00Z,28.8667,-90.4833,10.0,6.145,248.0,,'11111222,11111222,99999999' 
WAVCIS,ioos:station:WAVCIS:CSI06:1,2012-06-05T11:00:00Z,28.8667,-90.4833,10.0,6.991,257.0,,'11111222,11111222,99999999' 
WAVCIS,ioos:station:WAVCIS:CSI06:1,2012-06-05T12:00:00Z,28.8667,-90.4833,10.0,6.18,263.0,,'11111222,11111222,99999999' 
WAVCIS,ioos:station:WAVCIS:CSI06:1,2012-06-05T13:00:00Z,28.8667,-90.4833,10.0,5.975,268.0,,'11111222,11111222,99999999' 
WAVCIS,ioos:station:WAVCIS:CSI06:1,2012-06-05T14:00:00Z,28.8667,-90.4833,10.0,5.614,275.0,,'11111222,11111222,99999999' 
WAVCIS,ioos:station:WAVCIS:CSI06:1,2012-06-05T15:00:00Z,28.8667,-90.4833,10.0,5.404,273.0,,'11111222,11111222,99999999' 
WAVCIS,ioos:station:WAVCIS:CSI06:1,2012-06-05T16:00:00Z,28.8667,-90.4833,10.0,4.362,259.0,,'11111222,11111222,99999999' 
WAVCIS,ioos:station:WAVCIS:CSI06:1,2012-06-05T17:00:00Z,28.8667,-90.4833,10.0,3.919,270.0,,'11111222,11111222,99999999' 
WAVCIS,ioos:station:WAVCIS:CSI06:1,2012-06-05T18:00:00Z,28.8667,-90.4833,10.0,3.498,229.0,,'11111222,11111222,99999999' 
WAVCIS,ioos:station:WAVCIS:CSI06:1,2012-06-05T19:00:00Z,28.8667,-90.4833,10.0,3.17,228.0,,'11111222,11111222,99999999' 
WAVCIS,ioos:station:WAVCIS:CSI06:1,2012-06-05T20:00:00Z,28.8667,-90.4833,10.0,5.411,203.0,,'11111222,11111222,99999999' 
WAVCIS,ioos:station:WAVCIS:CSI06:1,2012-06-05T21:00:00Z,28.8667,-90.4833,10.0,8.88,184.0,,'11111222,11111222,99999999' 
WAVCIS,ioos:station:WAVCIS:CSI06:1,2012-06-05T22:00:00Z,28.8667,-90.4833,10.0,6.001,198.0,,'11111222,11111222,99999999' 
WAVCIS,ioos:station:WAVCIS:CSI06:1,2012-06-05T23:00:00Z,28.8667,-90.4833,10.0,8.01,191.0,,'11111222,11111222,99999999' 
WAVCIS,ioos:station:WAVCIS:CSI06:1,2012-06-06T00:00:00Z,28.8667,-90.4833,10.0,6.649,217.0,,'11111222,11111222,99999999' 
WAVCIS,ioos:station:WAVCIS:CSI06:1,2012-06-06T01:00:00Z,28.8667,-90.4833,10.0,5.57,226.0,,'11111222,11111222,99999999' 
WAVCIS,ioos:station:WAVCIS:CSI06:1,2012-06-06T02:00:00Z,28.8667,-90.4833,10.0,4.156,222.0,,'11111222,11111222,99999999' 
WAVCIS,ioos:station:WAVCIS:CSI06:1,2012-06-06T03:00:00Z,28.8667,-90.4833,10.0,4.115,232.0,,'11111222,11111222,99999999' 
WAVCIS,ioos:station:WAVCIS:CSI06:1,2012-06-06T04:00:00Z,28.8667,-90.4833,10.0,4.358,243.0,,'11111222,11111222,99999999' 
WAVCIS,ioos:station:WAVCIS:CSI06:1,2012-06-06T05:00:00Z,28.8667,-90.4833,10.0,5.375,236.0,,'11111222,11111222,99999999' 
WAVCIS,ioos:station:WAVCIS:CSI06:1,2012-06-06T06:00:00Z,28.8667,-90.4833,10.0,5.01,233.0,,'11111222,11111222,99999999' 
WAVCIS,ioos:station:WAVCIS:CSI06:1,2012-06-06T07:00:00Z,28.8667,-90.4833,10.0,3.372,256.0,,'11111222,11111222,99999999' 
WAVCIS,ioos:station:WAVCIS:CSI06:1,2012-06-06T08:00:00Z,28.8667,-90.4833,10.0,3.413,256.0,,'11111222,11111222,99999999' 
WAVCIS,ioos:station:WAVCIS:CSI06:1,2012-06-06T09:00:00Z,28.8667,-90.4833,10.0,3.538,244.0,,'11111222,11111222,99999999' 
WAVCIS,ioos:station:WAVCIS:CSI06:1,2012-06-06T10:00:00Z,28.8667,-90.4833,10.0,3.239,238.0,,'11111222,11111222,99999999' 
WAVCIS,ioos:station:WAVCIS:CSI06:1,2012-06-06T11:00:00Z,28.8667,-90.4833,10.0,3.436,247.0,,'11111222,11111222,99999999' 
WAVCIS,ioos:station:WAVCIS:CSI06:1,2012-06-06T12:00:00Z,28.8667,-90.4833,10.0,3.214,282.0,,'11111222,11111222,99999999' 
WAVCIS,ioos:station:WAVCIS:CSI06:1,2012-06-06T13:00:00Z,28.8667,-90.4833,10.0,2.117,307.0,,'11111222,11111222,99999999' 
WAVCIS,ioos:station:WAVCIS:CSI06:1,2012-06-06T14:00:00Z,28.8667,-90.4833,10.0,1.852,225.0,,'11111222,11111222,99999999' 
WAVCIS,ioos:station:WAVCIS:CSI06:1,2012-06-06T15:00:00Z,28.8667,-90.4833,10.0,1.326,263.0,,'11111222,11111222,99999999' 
WAVCIS,ioos:station:WAVCIS:CSI06:1,2012-06-06T16:00:00Z,28.8667,-90.4833,10.0,1.202,241.0,,'11111222,11111222,99999999' 
WAVCIS,ioos:station:WAVCIS:CSI06:1,2012-06-06T17:00:00Z,28.8667,-90.4833,10.0,1.496,231.0,,'11111222,11111222,99999999' 
WAVCIS,ioos:station:WAVCIS:CSI06:1,2012-06-06T18:00:00Z,28.8667,-90.4833,10.0,1.323,271.0,,'11111222,11111222,99999999' 
WAVCIS,ioos:station:WAVCIS:CSI06:1,2012-06-06T19:00:00Z,28.8667,-90.4833,10.0,1.69,249.0,,'11111222,11111222,99999999' 
WAVCIS,ioos:station:WAVCIS:CSI06:1,2012-06-06T20:00:00Z,28.8667,-90.4833,10.0,2.063,244.0,,'11111222,11111222,99999999' 
WAVCIS,ioos:station:WAVCIS:CSI06:1,2012-06-06T21:00:00Z,28.8667,-90.4833,10.0,2.278,189.0,,'11111222,11111222,99999999' 
WAVCIS,ioos:station:WAVCIS:CSI06:1,2012-06-06T22:00:00Z,28.8667,-90.4833,10.0,4.869,169.0,,'11111222,11111222,99999999' 
WAVCIS,ioos:station:WAVCIS:CSI06:1,2012-06-06T23:00:00Z,28.8667,-90.4833,10.0,4.298,157.0,,'11111222,11111222,99999999' 
WAVCIS,ioos:station:WAVCIS:CSI06:1,2012-06-07T00:00:00Z,28.8667,-90.4833,10.0,3.843,315.0,,'11111222,11111222,99999999' 
WAVCIS,ioos:station:WAVCIS:CSI06:1,2012-06-07T01:00:00Z,28.8667,-90.4833,10.0,2.423,49.0,,'11111222,11111222,99999999' 
WAVCIS,ioos:station:WAVCIS:CSI06:1,2012-06-07T02:00:00Z,28.8667,-90.4833,10.0,1.409,256.0,,'11111222,11111222,99999999' 
WAVCIS,ioos:station:WAVCIS:CSI06:1,2012-06-07T03:00:00Z,28.8667,-90.4833,10.0,1.95,221.0,,'11111222,11111222,99999999' 
WAVCIS,ioos:station:WAVCIS:CSI06:1,2012-06-07T04:00:00Z,28.8667,-90.4833,10.0,4.327,343.0,,'11111222,11111222,99999999' 
WAVCIS,ioos:station:WAVCIS:CSI06:1,2012-06-07T05:00:00Z,28.8667,-90.4833,10.0,4.708,15.0,,'11111222,11111222,99999999' 
WAVCIS,ioos:station:WAVCIS:CSI06:1,2012-06-07T06:00:00Z,28.8667,-90.4833,10.0,2.596,57.0,,'11111222,11111222,99999999' 
WAVCIS,ioos:station:WAVCIS:CSI06:1,2012-06-07T07:00:00Z,28.8667,-90.4833,10.0,3.199,106.0,,'11111222,11111222,99999999' 
WAVCIS,ioos:station:WAVCIS:CSI06:1,2012-06-07T08:00:00Z,28.8667,-90.4833,10.0,2.097,108.0,,'11111222,11111222,99999999' 
WAVCIS,ioos:station:WAVCIS:CSI06:1,2012-06-07T09:00:00Z,28.8667,-90.4833,10.0,3.369,43.0,,'11111222,11111222,99999999' 
WAVCIS,ioos:station:WAVCIS:CSI06:1,2012-06-07T10:00:00Z,28.8667,-90.4833,10.0,3.483,32.0,,'11111222,11111222,99999999' 
WAVCIS,ioos:station:WAVCIS:CSI06:1,2012-06-07T11:00:00Z,28.8667,-90.4833,10.0,3.469,44.0,,'11111222,11111222,99999999' 
WAVCIS,ioos:station:WAVCIS:CSI06:1,2012-06-07T12:00:00Z,28.8667,-90.4833,10.0,1.102,146.0,,'11111222,11111222,99999999' 
WAVCIS,ioos:station:WAVCIS:CSI06:1,2012-06-07T13:00:00Z,28.8667,-90.4833,10.0,2.418,127.0,,'11111222,11111222,99999999' 
WAVCIS,ioos:station:WAVCIS:CSI06:1,2012-06-07T14:00:00Z,28.8667,-90.4833,10.0,2.334,131.0,,'11111222,11111222,99999999' 
WAVCIS,ioos:station:WAVCIS:CSI06:1,2012-06-07T15:00:00Z,28.8667,-90.4833,10.0,1.864,107.0,,'11111222,11111222,99999999' 
WAVCIS,ioos:station:WAVCIS:CSI06:1,2012-06-07T16:00:00Z,28.8667,-90.4833,10.0,2.289,107.0,,'11111222,11111222,99999999' 
WAVCIS,ioos:station:WAVCIS:CSI06:1,2012-06-07T17:00:00Z,28.8667,-90.4833,10.0,2.184,93.0,,'11111222,11111222,99999999' 
WAVCIS,ioos:station:WAVCIS:CSI06:1,2012-06-07T18:00:00Z,28.8667,-90.4833,10.0,1.706,117.0,,'11111222,11111222,99999999' 
WAVCIS,ioos:station:WAVCIS:CSI06:1,2012-06-07T19:00:00Z,28.8667,-90.4833,10.0,2.782,139.0,,'11111222,11111222,99999999' 
WAVCIS,ioos:station:WAVCIS:CSI06:1,2012-06-07T20:00:00Z,28.8667,-90.4833,10.0,3.474,163.0,,'11111222,11111222,99999999' 
WAVCIS,ioos:station:WAVCIS:CSI06:1,2012-06-07T21:00:00Z,28.8667,-90.4833,10.0,4.312,202.0,,'11111222,11111222,99999999' 
WAVCIS,ioos:station:WAVCIS:CSI06:1,2012-06-07T22:00:00Z,28.8667,-90.4833,10.0,4.032,256.0,,'11111222,11111222,99999999' 
WAVCIS,ioos:station:WAVCIS:CSI06:1,2012-06-07T23:00:00Z,28.8667,-90.4833,10.0,4.256,249.0,,'11111222,11111222,99999999' 
WAVCIS,ioos:station:WAVCIS:CSI06:1,2012-06-08T00:00:00Z,28.8667,-90.4833,10.0,4.883,318.0,,'11111222,11111222,99999999' 
WAVCIS,ioos:station:WAVCIS:CSI06:1,2012-06-08T01:00:00Z,28.8667,-90.4833,10.0,3.667,352.0,,'11111222,11111222,99999999' 
WAVCIS,ioos:station:WAVCIS:CSI06:1,2012-06-08T02:00:00Z,28.8667,-90.4833,10.0,5.22,51.0,,'11111222,11111222,99999999' 
WAVCIS,ioos:station:WAVCIS:CSI06:1,2012-06-08T03:00:00Z,28.8667,-90.4833,10.0,3.578,65.0,,'11111222,11111222,99999999' 
WAVCIS,ioos:station:WAVCIS:CSI06:1,2012-06-08T04:00:00Z,28.8667,-90.4833,10.0,6.057,99.0,,'11111222,11111222,99999999' 
WAVCIS,ioos:station:WAVCIS:CSI06:1,2012-06-08T05:00:00Z,28.8667,-90.4833,10.0,5.351,133.0,,'11111222,11111222,99999999' 
WAVCIS,ioos:station:WAVCIS:CSI06:1,2012-06-08T06:00:00Z,28.8667,-90.4833,10.0,6.289,138.0,,'11111222,11111222,99999999' 
WAVCIS,ioos:station:WAVCIS:CSI06:1,2012-06-08T07:00:00Z,28.8667,-90.4833,10.0,4.395,117.0,,'11111222,11111222,99999999' 
WAVCIS,ioos:station:WAVCIS:CSI06:1,2012-06-08T08:00:00Z,28.8667,-90.4833,10.0,2.269,101.0,,'11111222,11111222,99999999' 
WAVCIS,ioos:station:WAVCIS:CSI06:1,2012-06-08T09:00:00Z,28.8667,-90.4833,10.0,3.601,102.0,,'11111222,11111222,99999999' 
WAVCIS,ioos:station:WAVCIS:CSI06:1,2012-06-08T10:00:00Z,28.8667,-90.4833,10.0,4.457,106.0,,'11111222,11111222,99999999' 
WAVCIS,ioos:station:WAVCIS:CSI06:1,2012-06-08T11:00:00Z,28.8667,-90.4833,10.0,6.267,90.0,,'11111222,11111222,99999999' 
WAVCIS,ioos:station:WAVCIS:CSI06:1,2012-06-08T12:00:00Z,28.8667,-90.4833,10.0,2.235,323.0,,'11111222,11111222,99999999' 
WAVCIS,ioos:station:WAVCIS:CSI06:1,2012-06-08T13:00:00Z,28.8667,-90.4833,10.0,5.893,332.0,,'11111222,11111222,99999999' 
WAVCIS,ioos:station:WAVCIS:CSI06:1,2012-06-08T14:00:00Z,28.8667,-90.4833,10.0,6.164,51.0,,'11111222,11111222,99999999' 
WAVCIS,ioos:station:WAVCIS:CSI06:1,2012-06-08T15:00:00Z,28.8667,-90.4833,10.0,7.76,71.0,,'11111222,11111222,99999999' 
WAVCIS,ioos:station:WAVCIS:CSI06:1,2012-06-08T16:00:00Z,28.8667,-90.4833,10.0,6.533,77.0,,'11111222,11111222,99999999' 
WAVCIS,ioos:station:WAVCIS:CSI06:1,2012-06-08T17:00:00Z,28.8667,-90.4833,10.0,7.09,80.0,,'11111222,11111222,99999999' 
WAVCIS,ioos:station:WAVCIS:CSI06:1,2012-06-08T18:00:00Z,28.8667,-90.4833,10.0,5.924,106.0,,'11111222,11111222,99999999' 
WAVCIS,ioos:station:WAVCIS:CSI06:1,2012-06-08T19:00:00Z,28.8667,-90.4833,10.0,5.051,95.0,,'11111222,11111222,99999999' 
WAVCIS,ioos:station:WAVCIS:CSI06:1,2012-06-08T20:00:00Z,28.8667,-90.4833,10.0,5.099,87.0,,'11111222,11111222,99999999' 
WAVCIS,ioos:station:WAVCIS:CSI06:1,2012-06-08T21:00:00Z,28.8667,-90.4833,10.0,6.364,88.0,,'11111222,11111222,99999999' 
WAVCIS,ioos:station:WAVCIS:CSI06:1,2012-06-08T22:00:00Z,28.8667,-90.4833,10.0,4.985,84.0,,'11111222,11111222,99999999' 
WAVCIS,ioos:station:WAVCIS:CSI06:1,2012-06-08T23:00:00Z,28.8667,-90.4833,10.0,4.303,111.0,,'11111222,11111222,99999999' 
WAVCIS,ioos:station:WAVCIS:CSI06:1,2012-06-09T00:00:00Z,28.8667,-90.4833,10.0,4.237,117.0,,'11111222,11111222,99999999' 
WAVCIS,ioos:station:WAVCIS:CSI06:1,2012-06-09T01:00:00Z,28.8667,-90.4833,10.0,4.452,121.0,,'11111222,11111222,99999999' 
WAVCIS,ioos:station:WAVCIS:CSI06:1,2012-06-09T02:00:00Z,28.8667,-90.4833,10.0,4.718,125.0,,'11111222,11111222,99999999' 
WAVCIS,ioos:station:WAVCIS:CSI06:1,2012-06-09T03:00:00Z,28.8667,-90.4833,10.0,3.569,128.0,,'11111222,11111222,99999999' 
WAVCIS,ioos:station:WAVCIS:CSI06:1,2012-06-09T04:00:00Z,28.8667,-90.4833,10.0,5.552,130.0,,'11111222,11111222,99999999' 
WAVCIS,ioos:station:WAVCIS:CSI06:1,2012-06-09T05:00:00Z,28.8667,-90.4833,10.0,5.659,133.0,,'11111222,11111222,99999999' 